Weather at Brive-Souillac

Public forecast

Using degrees Celsius for public forecast. Weather courtesy of forecast.io.

Current aviation weather report (METAR) for Brive-Souillac

Retrieved 2022/07/02 16:30 UTC (23 minutes ago):

LFSL 021630Z AUTO VRB03KT CAVOK 29/11 Q1019 NOSIG

Aviation forecast (TAF) for Brive-Souillac

Forecast is more than 12 hours old.

Retrieved 2013/11/19 06:15 UTC (9 years ago):

TAF TAF LFSL 190500Z 1906/1918 32012KT 9999 BKN003 TEMPO 1906/1909 1200 BR OVC003 BECMG 1909/1912 8000 BKN005